When you browse on this site, cookies collect data to enhance your experience and personalize the content and advertising you see.
Visit our Privacy Policy to learn more. By continuing to use the site, you agree to this use of cookies and data.
  • In Österreich
  • Länderverzeichnis
  • Für 7 Tage
  • Wassertemperatur
  • Satellitenkarten
  • Wetterkarte
  • News
  • Widgets
  • user-avatar
    Anmelden

    Stündliche Wetter Bourgoin

    Heute, 16 Februar, Samstag

    Zeit Temperatur Niederschläge Wind Luftdruck Luftfeuchtigkeit
    00:00 +7°C° 0 mm 1 m/S 745 mmHg 70%
    01:00 +6°C° 0 mm 1 m/S 745 mmHg 69%
    02:00 +6°C° 0 mm 1 m/S 745 mmHg 67%
    03:00 +6°C° 0 mm 1 m/S 745 mmHg 66%
    04:00 +6°C° 0 mm 1 m/S 745 mmHg 64%
    05:00 +5°C° 0 mm 1 m/S 745 mmHg 63%
    06:00 +4°C° 0 mm 2 m/S 745 mmHg 61%
    07:00 +7°C° 0 mm 1 m/S 745 mmHg 59%
    08:00 +8°C° 0 mm 1 m/S 745 mmHg 56%
    09:00 +10°C° 0 mm 1 m/S 744 mmHg 53%
    10:00 +12°C° 0 mm 2 m/S 744 mmHg 49%
    11:00 +14°C° 0 mm 2 m/S 744 mmHg 45%
    12:00 +17°C° 0 mm 3 m/S 744 mmHg 41%
    13:00 +17°C° 0 mm 3 m/S 744 mmHg 42%
    14:00 +17°C° 0 mm 3 m/S 744 mmHg 44%
    15:00 +17°C° 0 mm 3 m/S 743 mmHg 45%
    16:00 +14°C° 0 mm 3 m/S 743 mmHg 51%
    17:00 +11°C° 0 mm 3 m/S 744 mmHg 56%
    18:00 +9°C° 0 mm 2 m/S 744 mmHg 62%
    19:00 +8°C° 0 mm 2 m/S 744 mmHg 65%
    20:00 +8°C° 0 mm 2 m/S 744 mmHg 68%
    21:00 +7°C° 0 mm 2 m/S 744 mmHg 70%
    22:00 +7°C° 0 mm 2 m/S 744 mmHg 71%
    23:00 +6°C° 0 mm 2 m/S 744 mmHg 72%

    Morgen, 17 Februar, Sonntag

    Zeit Temperatur Niederschläge Wind Luftdruck Luftfeuchtigkeit
    00:00 +6°C° 0 mm 2 m/S 744 mmHg 73%
    01:00 +6°C° 0 mm 2 m/S 744 mmHg 72%
    02:00 +5°C° 0 mm 2 m/S 743 mmHg 71%
    03:00 +5°C° 0 mm 2 m/S 743 mmHg 70%
    04:00 +5°C° 0 mm 2 m/S 743 mmHg 69%
    05:00 +5°C° 0 mm 2 m/S 743 mmHg 67%
    06:00 +4°C° 0 mm 2 m/S 743 mmHg 66%
    07:00 +6°C° 0 mm 2 m/S 743 mmHg 63%
    08:00 +8°C° 0 mm 2 m/S 743 mmHg 59%
    09:00 +9°C° 0 mm 3 m/S 743 mmHg 55%
    10:00 +11°C° 0 mm 3 m/S 742 mmHg 52%
    11:00 +12°C° 0 mm 4 m/S 742 mmHg 50%
    12:00 +14°C° 0 mm 4 m/S 742 mmHg 47%
    13:00 +14°C° 0 mm 4 m/S 741 mmHg 49%
    14:00 +14°C° 0 mm 4 m/S 741 mmHg 50%
    15:00 +14°C° 0 mm 4 m/S 740 mmHg 52%
    16:00 +12°C° 0 mm 4 m/S 740 mmHg 60%
    17:00 +10°C° 0 mm 3 m/S 741 mmHg 68%
    18:00 +8°C° 0 mm 3 m/S 741 mmHg 77%
    19:00 +8°C° 0 mm 3 m/S 741 mmHg 80%
    20:00 +7°C° 0 mm 3 m/S 741 mmHg 84%
    21:00 +7°C° 0 mm 3 m/S 741 mmHg 88%
    22:00 +5°C° 0 mm 3 m/S 741 mmHg 88%
    23:00 +5°C° 0 mm 3 m/S 741 mmHg 88%

    übermorgen, 18 Februar, Montag

    Zeit Temperatur Niederschläge Wind Luftdruck Luftfeuchtigkeit
    00:00 +4°C° 0 mm 3 m/S 741 mmHg 88%
    01:00 +5°C° 0 mm 2 m/S 741 mmHg 88%
    02:00 +5°C° 0 mm 2 m/S 741 mmHg 88%
    03:00 +4°C° 0 mm 2 m/S 740 mmHg 88%
    04:00 +4°C° 0 mm 2 m/S 740 mmHg 87%
    05:00 +4°C° 0 mm 2 m/S 740 mmHg 86%
    06:00 +3°C° 0 mm 2 m/S 740 mmHg 85%
    07:00 +5°C° 0 mm 2 m/S 740 mmHg 77%
    08:00 +5°C° 0 mm 3 m/S 740 mmHg 70%
    09:00 +8°C° 0 mm 3 m/S 740 mmHg 63%
    10:00 +8°C° 0 mm 4 m/S 740 mmHg 58%
    11:00 +11°C° 0 mm 4 m/S 739 mmHg 53%
    12:00 +12°C° 0 mm 5 m/S 739 mmHg 48%
    13:00 +12°C° 0 mm 5 m/S 739 mmHg 50%
    14:00 +12°C° 0 mm 5 m/S 738 mmHg 52%
    15:00 +12°C° 0 mm 5 m/S 738 mmHg 53%
    16:00 +11°C° 0 mm 4 m/S 738 mmHg 62%
    17:00 +9°C° 0 mm 3 m/S 738 mmHg 71%
    18:00 +7°C° 0 mm 2 m/S 739 mmHg 80%
    19:00 +6°C° 0 mm 2 m/S 739 mmHg 83%
    20:00 +6°C° 0 mm 2 m/S 739 mmHg 86%
    21:00 +5°C° 0 mm 2 m/S 740 mmHg 89%
    22:00 +5°C° 0 mm 2 m/S 740 mmHg 88%
    23:00 +5°C° 0 mm 2 m/S 740 mmHg 87%

    19 Februar, Dienstag

    Zeit Temperatur Niederschläge Wind Luftdruck Luftfeuchtigkeit
    00:00 +4°C° 0 mm 2 m/S 740 mmHg 86%
    01:00 +4°C° 0 mm 2 m/S 740 mmHg 85%
    02:00 +4°C° 0 mm 2 m/S 740 mmHg 84%
    03:00 +4°C° 0 mm 1 m/S 740 mmHg 82%
    04:00 +4°C° 0 mm 1 m/S 740 mmHg 81%
    05:00 +4°C° 0 mm 1 m/S 740 mmHg 79%
    06:00 +4°C° 0 mm 1 m/S 740 mmHg 78%
    07:00 +5°C° 0 mm 1 m/S 740 mmHg 72%
    08:00 +7°C° 0 mm 1 m/S 740 mmHg 67%
    09:00 +8°C° 0 mm 1 m/S 740 mmHg 61%
    10:00 +10°C° 0 mm 1 m/S 740 mmHg 59%
    11:00 +11°C° 0 mm 1 m/S 740 mmHg 56%
    12:00 +13°C° 0 mm 1 m/S 740 mmHg 53%
    13:00 +13°C° 0 mm 1 m/S 739 mmHg 52%
    14:00 +12°C° 0 mm 0 m/S 739 mmHg 51%
    15:00 +13°C° 0 mm 0 m/S 739 mmHg 50%
    16:00 +11°C° 0 mm 0 m/S 739 mmHg 57%
    17:00 +9°C° 0 mm 0 m/S 739 mmHg 63%
    18:00 +8°C° 0 mm 0 m/S 740 mmHg 69%
    19:00 +7°C° 0 mm 0 m/S 740 mmHg 71%
    20:00 +6°C° 0 mm 0 m/S 740 mmHg 74%
    21:00 +7°C° 0 mm 1 m/S 740 mmHg 76%
    22:00 +7°C° 0 mm 1 m/S 740 mmHg 77%
    23:00 +6°C° 0 mm 1 m/S 741 mmHg 78%

    20 Februar, Mittwoch

    Zeit Temperatur Niederschläge Wind Luftdruck Luftfeuchtigkeit
    00:00 +6°C° 0 mm 1 m/S 741 mmHg 79%
    01:00 +6°C° 0 mm 1 m/S 740 mmHg 79%
    02:00 +5°C° 0 mm 1 m/S 740 mmHg 79%
    03:00 +5°C° 0 mm 1 m/S 740 mmHg 79%
    04:00 +5°C° 0 mm 1 m/S 740 mmHg 79%
    05:00 +5°C° 0 mm 1 m/S 740 mmHg 78%
    06:00 +4°C° 0 mm 1 m/S 740 mmHg 78%
    07:00 +6°C° 0 mm 1 m/S 741 mmHg 73%
    08:00 +7°C° 0 mm 1 m/S 741 mmHg 68%
    09:00 +9°C° 0 mm 1 m/S 741 mmHg 63%
    10:00 +10°C° 0 mm 2 m/S 741 mmHg 58%
    11:00 +12°C° 0 mm 2 m/S 741 mmHg 53%
    12:00 +14°C° 0 mm 2 m/S 741 mmHg 48%
    13:00 +14°C° 0 mm 2 m/S 741 mmHg 47%
    14:00 +14°C° 0 mm 2 m/S 740 mmHg 47%
    15:00 +15°C° 0 mm 2 m/S 740 mmHg 46%
    16:00 +13°C° 0 mm 2 m/S 740 mmHg 53%
    17:00 +10°C° 0 mm 2 m/S 741 mmHg 60%
    18:00 +9°C° 0 mm 1 m/S 741 mmHg 67%
    19:00 +8°C° 0 mm 1 m/S 741 mmHg 69%
    20:00 +8°C° 0 mm 1 m/S 742 mmHg 71%
    21:00 +7°C° 0 mm 1 m/S 742 mmHg 74%
    22:00 +7°C° 0 mm 1 m/S 742 mmHg 74%
    23:00 +6°C° 0 mm 1 m/S 742 mmHg 75%

    21 Februar, Donnerstag

    Zeit Temperatur Niederschläge Wind Luftdruck Luftfeuchtigkeit
    00:00 +6°C° 0 mm 1 m/S 742 mmHg 75%
    01:00 +6°C° 0 mm 1 m/S 742 mmHg 76%
    02:00 +6°C° 0 mm 1 m/S 742 mmHg 76%
    03:00 +5°C° 0 mm 1 m/S 742 mmHg 76%
    04:00 +5°C° 0 mm 1 m/S 742 mmHg 76%
    05:00 +5°C° 0 mm 1 m/S 742 mmHg 76%
    06:00 +5°C° 0 mm 1 m/S 742 mmHg 77%
    07:00 +6°C° 0 mm 1 m/S 742 mmHg 71%
    08:00 +8°C° 0 mm 1 m/S 743 mmHg 66%
    09:00 +9°C° 0 mm 1 m/S 743 mmHg 61%
    10:00 +11°C° 0 mm 1 m/S 743 mmHg 56%
    11:00 +13°C° 0 mm 1 m/S 742 mmHg 52%
    12:00 +14°C° 0 mm 1 m/S 742 mmHg 47%
    13:00 +15°C° 0 mm 1 m/S 742 mmHg 46%
    14:00 +15°C° 0 mm 1 m/S 742 mmHg 45%
    15:00 +15°C° 0 mm 1 m/S 742 mmHg 44%
    16:00 +12°C° 0 mm 0 m/S 742 mmHg 49%
    17:00 +10°C° 0 mm 0 m/S 742 mmHg 55%
    18:00 +9°C° 0 mm 0 m/S 743 mmHg 60%
    19:00 +8°C° 0 mm 0 m/S 743 mmHg 63%
    20:00 +7°C° 0 mm 0 m/S 743 mmHg 65%
    21:00 +7°C° 0 mm 0 m/S 744 mmHg 68%
    22:00 +6°C° 0 mm 0 m/S 744 mmHg 70%
    23:00 +6°C° 0 mm 0 m/S 744 mmHg 71%
    Mehr zeigen